Temp
4 4 4 4 4 4 5 6 7 7 7 8 8 8 9 8 7 8 8 8 7 7 6 5 5 6 7 6 7 7 7 7 7 8 8 8 9 9 9 10 10 10 11 11 11 12 12 12 12 12 12 12 12 12 12 13 12 13 14 13 12 12 12 13 13 13 13 14 14 13 12 12 13 12 11 11 13 15 15 15 14 13 13 12 13 14 12
4 4 4 4 4 4 5 6 7 7 7 8 8 8 8 8 7 8 8 8 7 7 6 6 6 7 6 6 7 7 7 7 7 7 8 8 9 9 10 10 10 10 11 11 11 12 12 12 12 12 12 12 12 11 12 13 13 13 13 13 14 13 12 12 13 12 13 14 14 14 13 13 12 11 10 10 11 12 13 12 13 14 13 12 15 15 12
4 4 4 4 4 4 5 6 7 8 8 8 8 8 8 8 8 8 7 7 7 7 6 6 6 6 6 6 6 6 6 7 7 7 7 8 8 9 10 10 10 10 10 11 11 11 12 12 12 12 11 12 12 11 12 12 12 12 13 13 14 13 11 12 13 13 12 12 13 13 13 12 11 11 10 10 10 12 14 14 15 15 12 11 14 14 11
4 4 4 4 4 4 5 6 7 8 8 8 8 8 8 8 8 7 8 7 7 7 6 6 6 6 6 6 6 6 6 6 7 7 7 8 8 8 9 9 9 9 9 11 11 10 11 11 11 10 10 11 12 11 12 12 12 12 12 12 12 11 9 10 12 12 12 12 11 10 10 11 11 11 10 9 8 10 13 15 15 14 11 11 12 10 10
4 4 4 4 4 5 5 6 7 8 8 8 8 8 8 8 8 7 7 7 7 7 6 5 5 5 5 6 6 5 5 6 7 7 8 8 8 7 8 8 9 9 9 10 10 10 10 11 10 9 9 11 11 11 12 12 12 13 12 11 12 11 9 8 9 9 9 9 9 9 9 9 8 8 9 8 7 10 14 15 13 12 13 12 10 9 11
4 4 4 4 4 5 6 6 7 7 8 8 8 8 8 8 7 7 7 7 6 7 7 6 6 6 5 6 6 6 6 6 7 7 7 7 8 8 8 8 8 7 7 9 10 10 10 10 9 8 9 9 10 11 12 12 11 12 11 10 11 11 10 8 8 8 8 8 8 8 8 7 6 6 7 7 6 9 12 12 9 10 13 13 10 10 10
4 4 4 4 4 5 6 6 7 7 8 8 8 8 8 8 7 6 7 7 6 6 6 6 6 6 6 6 6 6 6 6 6 6 7 7 7 7 8 8 8 7 6 8 9 8 9 9 8 8 8 8 9 11 12 12 11 11 11 10 9 10 9 8 8 9 8 8 8 8 8 8 6 5 6 6 6 7 8 7 7 9 11 10 9 8 7
4 4 4 4 5 5 5 6 7 7 8 8 8 8 8 8 8 7 7 7 6 6 6 5 6 7 6 6 6 5 6 6 6 6 6 7 7 7 7 7 7 7 7 8 9 8 8 9 8 7 7 8 9 10 11 11 11 11 11 10 9 10 9 8 8 9 8 7 8 8 8 8 8 7 5 6 7 7 7 7 7 8 8 7 7 7 5
4 4 4 4 5 5 5 6 7 7 8 8 8 8 8 8 8 7 8 7 5 5 5 4 6 7 5 5 6 6 6 6 6 6 7 7 7 7 7 7 7 7 8 8 8 8 8 8 9 9 7 7 8 8 9 10 11 11 10 10 10 10 8 7 8 9 8 7 7 8 9 9 9 8 5 5 6 6 6 6 6 7 8 8 8 8 6
4 4 4 4 5 5 5 6 6 7 7 7 8 8 8 8 8 8 8 7 4 4 4 4 5 6 5 5 5 6 6 5 5 7 7 7 8 7 6 6 7 7 8 8 7 7 7 8 9 9 8 7 7 7 8 8 10 10 10 9 8 9 9 8 9 9 8 7 7 8 9 10 10 7 5 5 6 6 6 5 4 5 7 8 8 7 5
4 4 4 4 5 5 5 6 6 7 7 7 8 8 8 8 8 8 8 7 4 2 4 5 6 5 5 4 5 5 5 5 5 7 7 7 8 8 7 6 6 7 8 8 7 7 8 8 9 9 9 8 8 8 8 8 8 9 10 9 8 8 9 8 8 9 8 7 7 8 9 9 8 5 4 5 5 6 6 5 4 4 5 5 5 4 3
4 4 4 5 5 5 5 6 6 7 7 7 8 8 8 8 8 8 8 7 5 3 4 6 5 4 5 4 4 5 5 5 5 6 6 7 7 8 7 6 6 7 8 8 8 8 8 9 9 9 9 8 8 8 8 8 8 7 8 10 9 8 9 8 7 8 7 7 8 9 9 7 6 5 5 5 5 5 4 4 3 3 3 3 3 2 2
4 4 4 5 5 5 6 6 6 7 7 7 8 8 8 7 8 8 8 7 5 4 5 5 4 4 4 4 4 5 5 5 5 5 5 5 6 7 8 7 6 7 8 8 8 8 8 8 9 9 9 8 8 9 8 8 8 7 8 9 9 9 9 8 7 7 7 7 8 8 7 5 5 5 5 5 5 5 5 5 4 3 3 3 2 1 1
4 4 4 5 5 5 5 6 6 7 7 8 8 8 8 8 8 8 8 7 5 3 3 4 5 5 4 3 4 5 5 5 5 6 6 5 5 7 8 7 8 8 7 8 8 8 8 8 8 9 9 8 8 8 8 8 8 7 7 8 8 9 9 8 7 7 7 7 7 6 6 6 5 5 5 5 5 5 5 6 4 3 3 2 1 1 1
4 4 4 5 5 5 6 6 6 6 7 7 8 8 8 8 8 8 8 7 5 3 3 5 5 4 4 4 4 5 5 5 5 5 6 5 6 8 8 8 8 8 8 8 8 8 9 9 8 8 8 8 8 8 8 9 9 7 6 7 8 8 9 9 8 7 6 7 6 6 7 7 5 5 5 4 4 4 4 5 5 3 3 2 2 2 1
4 4 5 5 5 5 6 6 6 6 7 7 8 8 8 8 8 8 8 7 6 5 5 5 5 4 4 5 4 4 4 5 4 5 6 6 6 8 8 8 8 8 8 7 6 8 9 8 7 7 8 7 8 8 8 9 9 9 7 8 8 8 7 8 8 7 6 7 7 7 7 6 5 4 4 4 4 3 4 6 6 4 3 3 2 2 2
5 5 5 5 5 5 5 6 6 6 7 7 7 8 8 8 7 7 7 7 6 6 6 6 5 5 5 5 5 4 4 4 4 4 6 6 5 6 8 8 8 8 9 8 7 8 8 7 6 7 7 7 8 9 8 8 8 9 8 8 8 8 7 7 8 6 6 7 7 6 5 5 4 4 4 4 4 3 5 8 7 4 3 3 2 2 2
5 5 5 5 5 5 5 6 6 6 7 7 7 7 7 7 7 7 7 7 6 5 6 6 6 6 5 5 5 5 5 4 4 3 4 4 4 5 6 6 6 8 8 8 8 8 7 6 6 7 7 6 7 8 7 6 6 6 6 7 7 7 6 6 6 5 5 5 6 5 4 4 3 3 3 4 4 5 7 8 6 3 3 3 3 3 3
5 5 5 5 5 5 5 6 6 6 6 7 7 7 7 7 7 7 7 7 6 6 6 6 6 6 6 6 6 5 5 5 4 4 4 5 5 5 5 5 6 7 6 6 7 7 6 6 5 5 6 7 6 6 5 5 5 5 5 6 6 5 5 5 4 4 4 4 5 5 4 3 2 2 3 4 6 7 7 5 4 3 3 3 3 3 3
5 5 5 5 5 5 5 6 6 6 6 7 7 7 7 7 7 7 7 7 6 6 6 6 6 6 6 6 6 6 5 5 5 4 4 5 5 5 6 7 6 5 5 6 6 6 6 6 5 5 6 6 5 6 5 4 4 4 5 5 4 3 4 5 3 3 3 4 5 5 5 3 2 2 4 5 5 6 4 3 3 4 3 3 4 3 4
5 6 6 6 6 6 6 6 6 6 6 6 7 7 7 7 7 7 7 7 7 6 6 6 6 6 6 6 6 6 6 6 5 5 5 5 5 5 7 6 5 5 5 6 6 5 5 6 5 5 5 5 5 5 5 5 5 4 4 4 4 3 4 4 3 2 4 5 4 4 3 2 1 2 3 3 3 4 3 3 3 4 3 4 4 3 4
6 6 6 6 6 6 6 6 6 6 6 6 7 7 7 7 7 7 7 7 7 7 6 6 6 6 6 6 6 6 6 6 6 6 6 6 6 6 6 6 5 5 4 5 6 6 5 5 6 5 5 4 4 4 4 5 5 4 3 4 4 3 3 3 2 1 2 3 3 2 2 2 2 2 2 2 3 3 4 4 3 3 4 4 4 3 3
6 6 6 6 6 6 6 6 6 6 6 6 7 7 7 7 7 7 7 7 7 7 6 6 6 6 7 7 6 6 7 7 7 7 7 7 7 6 6 6 5 5 5 5 6 6 5 5 5 4 4 4 4 4 4 4 4 4 3 4 4 3 3 3 2 2 2 2 2 2 2 2 2 2 2 3 3 3 4 4 3 3 4 4 3 3 3
6 6 6 6 6 6 6 6 6 6 6 6 6 7 7 7 7 7 7 7 7 7 6 6 6 6 7 7 7 7 7 7 7 7 8 8 8 7 6 6 6 6 6 6 6 6 5 4 3 4 4 3 3 4 4 4 4 4 4 4 4 4 3 3 3 3 3 3 2 2 2 2 2 2 3 3 3 3 3 3 3 2 3 3 3 3 2
6 6 6 6 6 6 6 6 6 6 6 6 6 6 7 7 7 7 7 7 7 7 6 6 6 6 7 7 7 7 7 7 7 8 8 8 8 8 7 7 7 7 7 6 6 7 6 4 4 5 5 4 4 4 3 4 4 4 4 3 3 4 4 3 3 2 2 2 2 2 2 2 2 2 2 2 3 3 2 2 2 2 3 2 2 2 2
6 6 6 6 6 6 6 6 6 6 6 6 6 6 7 7 7 7 7 7 7 7 6 6 6 7 7 7 7 7 7 7 8 8 8 8 8 8 8 7 7 7 7 7 7 7 5 4 4 5 5 4 4 4 3 3 3 3 3 3 2 3 4 3 2 2 2 2 2 3 3 2 2 2 2 2 2 2 1 2 2 2 2 2 2 2 2
6 6 6 6 6 6 6 6 6 6 5 5 6 6 6 7 7 7 7 7 7 7 6 6 6 7 7 7 7 7 7 7 7 7 8 7 7 7 8 8 8 8 8 8 7 7 5 3 3 4 4 4 3 3 2 3 3 3 4 3 2 3 3 2 2 3 3 3 3 3 3 2 2 2 3 3 3 3 2 2 2 2 2 2 2 1 1
5 6 6 6 6 6 6 6 6 6 5 5 5 6 6 6 7 7 7 7 7 7 7 6 6 7 7 7 7 7 7 7 7 7 7 7 7 7 7 7 8 8 7 7 7 5 3 3 4 4 3 4 4 3 2 2 3 4 4 2 2 3 3 3 4 4 3 4 4 3 3 2 2 3 3 3 3 4 3 3 3 3 3 3 3 2 2
5 6 6 6 6 6 6 5 6 6 5 5 5 6 6 6 7 7 7 7 7 7 7 6 6 7 7 7 7 7 7 7 7 7 7 7 7 7 7 7 7 7 7 7 6 4 3 4 5 4 4 5 5 4 3 3 3 3 3 2 2 3 3 4 4 3 3 4 4 3 3 3 2 3 3 3 4 4 4 4 4 3 3 3 3 3 3
5 5 6 5 5 6 5 5 5 5 5 5 5 6 6 6 6 7 7 7 7 7 7 7 6 6 6 7 7 7 7 7 7 7 7 7 7 7 7 7 7 7 7 7 6 5 4 4 5 5 5 5 4 4 3 3 3 3 3 3 3 4 4 5 4 4 4 4 4 4 4 3 3 3 4 4 4 4 4 4 4 4 4 4 3 3 3
5 5 5 5 5 5 5 5 5 5 5 5 5 5 6 6 6 7 7 7 7 7 7 7 6 6 6 6 7 7 7 7 7 7 7 7 7 7 7 7 7 7 7 6 6 5 4 4 4 5 5 5 4 3 3 3 4 4 4 3 3 4 5 5 5 5 4 4 4 4 4 4 4 4 4 4 4 4 4 4 4 4 4 3 3 3 3
5 5 5 5 5 5 5 5 5 5 5 5 5 5 5 6 6 6 7 7 7 7 7 7 6 5 5 6 7 7 7 7 7 7 7 7 7 7 7 7 7 7 6 6 6 5 4 4 4 5 5 5 5 3 3 4 4 3 3 3 4 4 5 5 5 5 5 4 4 4 3 4 4 4 4 4 4 4 4 4 4 3 3 3 3 3 3
4 5 5 5 5 5 5 4 4 4 5 5 5 5 5 6 6 6 6 7 7 7 7 6 5 4 5 6 7 7 7 7 7 7 7 7 7 7 7 7 7 7 6 6 5 5 5 5 5 5 5 5 5 4 4 4 3 3 3 4 4 4 5 5 5 4 4 5 5 4 4 4 4 4 4 4 4 4 4 4 3 3 3 3 3 3 2
4 4 4 4 4 4 4 4 4 4 4 5 5 5 5 6 6 6 7 7 7 7 7 6 5 5 5 6 6 6 7 7 7 6 6 6 7 7 7 7 7 6 6 5 5 4 5 5 5 5 5 4 4 4 4 3 3 3 3 4 4 5 4 4 4 4 4 4 5 4 4 4 4 4 4 4 3 3 3 3 3 3 3 3 3 2 2
4 4 4 4 4 4 4 4 4 4 4 4 5 5 5 5 6 6 7 7 7 7 6 6 6 6 5 5 6 6 6 6 6 6 6 6 7 7 7 7 6 5 5 5 4 3 2 3 5 4 3 2 3 4 3 3 3 3 4 4 4 4 4 4 4 4 4 4 5 4 4 5 4 4 4 4 4 4 3 3 3 3 3 3 2 2 2
4 4 4 4 4 4 4 4 4 4 4 4 5 5 5 6 6 6 6 7 7 7 6 5 5 5 4 5 5 6 6 6 5 6 6 6 6 7 7 6 5 4 5 5 3 2 2 4 5 4 1 2 3 3 2 3 4 3 4 4 4 4 5 5 4 4 5 5 4 4 4 4 4 4 4 4 4 3 3 3 3 3 3 2 2 2 2
4 4 4 3 3 4 4 4 4 4 4 4 5 5 5 5 6 6 6 6 7 7 6 6 5 4 3 4 5 5 6 6 5 5 6 6 5 6 6 5 4 4 4 4 3 3 4 4 4 3 2 2 2 2 2 4 4 4 4 4 4 4 5 5 4 5 4 4 4 4 4 4 4 4 4 4 3 3 3 3 3 3 3 3 2 2 2
3 3 3 3 3 4 4 4 4 4 4 5 5 5 5 5 6 6 6 6 6 6 6 6 5 4 4 5 5 5 6 5 4 5 5 5 5 5 5 4 4 4 3 3 3 3 4 3 2 2 2 2 2 2 3 4 4 4 4 5 5 5 5 5 5 5 4 4 4 4 4 4 4 4 4 4 4 4 3 3 3 3 3 3 3 2 2
3 3 3 3 4 4 4 4 4 4 5 5 5 5 5 5 6 6 6 6 6 6 6 5 5 4 4 4 4 5 5 5 5 4 4 4 5 5 4 4 4 4 3 3 3 3 3 2 1 2 2 2 2 3 3 4 4 5 5 5 5 5 5 5 5 5 5 5 5 5 5 4 4 4 4 4 4 4 4 3 3 3 3 2 2 2 2
3 3 3 3 4 4 4 4 4 5 5 5 5 5 6 5 5 5 5 5 5 5 5 5 5 5 5 5 5 5 5 5 6 5 5 4 4 4 4 4 4 3 3 3 3 3 3 2 1 2 2 2 2 3 4 4 4 4 4 5 5 4 4 4 4 4 4 5 4 4 4 4 4 4 4 4 4 4 3 3 3 3 2 2 2 2 2
3 3 4 4 4 4 4 4 5 5 5 5 5 5 5 5 5 5 5 5 5 5 5 5 5 5 5 6 6 5 5 5 6 6 5 4 4 4 4 3 3 3 3 3 3 3 3 2 2 2 2 3 3 4 4 4 4 4 4 4 4 4 4 4 4 4 4 4 4 4 4 4 4 4 3 3 3 3 3 3 3 3 2 2 2 2 2
3 3 4 4 4 4 4 4 5 5 5 5 5 4 3 3 4 5 5 4 5 5 5 5 5 5 5 6 6 6 5 5 6 6 5 4 4 4 4 3 2 3 3 2 2 3 3 2 2 2 3 3 3 3 3 4 4 4 4 4 4 4 4 4 4 4 4 4 4 4 4 4 4 3 3 3 3 3 3 3 3 2 2 2 2 1 1
3 3 4 4 4 4 4 4 5 5 4 4 4 4 3 3 4 4 4 4 4 5 5 5 5 5 5 5 5 6 5 5 6 6 5 4 4 4 4 3 3 3 3 2 2 3 3 2 2 3 3 3 3 3 3 3 3 3 3 4 4 4 3 4 4 4 4 4 4 4 4 3 3 3 3 3 3 3 3 3 2 2 2 2 1 1 1
3 3 4 4 4 4 4 4 4 4 4 3 4 4 4 4 4 4 4 5 5 5 5 5 5 5 5 5 5 5 5 5 6 5 4 3 3 3 4 3 2 2 2 2 2 2 1 2 2 3 3 3 3 3 3 3 3 3 3 3 3 3 3 3 3 3 3 4 4 3 3 3 3 3 3 3 3 3 3 2 2 2 2 1 1 1 1
3 3 4 4 3 4 4 4 3 3 4 3 3 4 4 4 4 4 5 5 5 5 6 6 6 5 5 4 5 5 5 5 5 4 2 2 2 3 3 2 1 0 1 2 1 1 1 2 2 2 3 3 4 4 3 3 3 3 3 3 3 3 3 3 3 3 3 3 3 3 3 3 3 3 3 3 3 2 2 2 2 2 2 2 1 1 1
3 4 4 4 3 3 3 3 3 3 3 3 3 4 4 4 4 5 5 6 6 6 6 6 6 6 5 4 5 5 5 5 4 2 2 2 3 3 2 2 2 2 2 1 1 2 3 2 2 2 3 4 4 3 3 3 3 3 3 3 3 3 2 2 3 3 3 3 3 3 3 3 3 3 2 2 2 2 2 2 2 2 2 2 2 2 2
3 3 4 4 3 2 2 3 3 3 3 4 4 5 5 5 5 5 6 6 6 6 6 6 6 5 5 4 4 4 4 5 4 3 2 3 3 2 2 2 2 2 1 1 2 2 2 2 3 3 4 4 3 3 3 3 3 3 3 3 2 2 2 2 2 2 2 2 2 2 2 2 2 2 2 2 2 2 2 2 2 2 2 2 2 2 2
3 3 4 4 3 2 2 3 3 3 3 4 5 5 5 5 5 5 6 6 6 6 6 5 5 5 4 4 4 3 3 4 4 3 2 3 2 2 2 2 1 1 1 2 3 3 3 3 3 4 4 3 3 3 3 3 3 3 3 3 2 2 2 2 2 2 2 2 2 2 2 2 2 2 2 2 2 2 2 2 2 2 2 2 2 2 2
3 3 3 3 2 2 2 3 3 2 3 3 4 4 5 5 5 5 5 6 6 6 6 6 6 5 4 3 3 3 3 3 3 2 2 3 3 2 2 1 1 2 1 0 0 2 3 4 4 4 4 3 3 3 3 3 3 3 2 2 2 2 2 2 2 2 2 2 2 2 2 2 2 2 2 2 2 2 2 2 2 2 2 2 2 2 2
3 3 3 3 3 2 2 3 3 2 2 3 3 4 5 5 5 5 5 5 6 6 6 6 5 4 2 2 3 3 3 2 2 2 3 3 2 1 1 1 2 3 2 0 -0 2 4 4 4 4 4 3 3 3 3 3 2 2 2 2 2 2 2 2 2 2 2 1 2 2 2 2 2 2 1 2 1 1 1 2 2 2 2 2 2 2 2
3 3 3 3 3 3 3 3 3 3 2 3 3 4 5 5 5 5 5 5 6 5 5 4 3 3 3 3 3 3 2 2 1 2 2 2 1 1 2 3 2 2 3 3 3 4 4 4 4 4 4 3 3 3 3 2 2 2 2 2 2 2 2 2 1 1 1 1 1 1 1 1 1 1 1 1 1 1 1 1 1 1 2 2 2 2 2
3 3 3 3 3 3 3 3 3 3 3 3 4 4 5 5 5 5 5 5 5 5 4 3 2 3 3 3 2 2 2 2 1 1 2 1 1 1 3 4 3 3 4 4 4 4 4 4 4 4 3 3 3 3 2 2 2 2 2 2 2 2 1 1 1 1 1 1 1 1 1 1 1 1 1 1 1 1 1 1 1 1 1 1 1 1 1
Height
1468 1467 1466 1466 1464 1463 1461 1459 1458 1458 1457 1457 1457 1457 1457 1458 1460 1461 1461 1462 1462 1464 1465 1466 1466 1466 1465 1464 1463 1463 1462 1461 1460 1459 1458 1457 1456 1455 1455 1453 1452 1451 1449 1448 1446 1444 1441 1441 1441 1441 1440 1440 1439 1437 1436 1436 1437 1437 1439 1441 1440 1442 1449 1452 1452 1452 1448 1444 1443 1444 1444 1445 1446 1447 1450 1451 1447 1444 1447 1450 1454 1460 1466 1469 1467 1468 1470
1467 1467 1466 1465 1464 1462 1460 1459 1458 1457 1457 1457 1456 1457 1457 1458 1460 1461 1462 1462 1463 1464 1466 1466 1466 1465 1464 1464 1463 1461 1461 1460 1459 1459 1458 1456 1455 1455 1453 1451 1450 1449 1448 1447 1445 1443 1442 1441 1440 1440 1440 1439 1438 1437 1435 1436 1439 1439 1439 1439 1438 1443 1451 1453 1455 1458 1457 1452 1448 1446 1445 1446 1450 1454 1455 1454 1452 1449 1449 1454 1454 1456 1465 1466 1460 1465 1472
1467 1467 1466 1465 1463 1462 1460 1459 1458 1457 1457 1457 1456 1457 1457 1459 1461 1462 1462 1463 1463 1464 1465 1465 1466 1466 1466 1465 1463 1462 1461 1459 1458 1458 1457 1456 1455 1454 1452 1450 1449 1449 1448 1447 1444 1443 1442 1442 1440 1441 1441 1439 1438 1437 1436 1437 1439 1439 1438 1437 1438 1445 1452 1452 1453 1460 1463 1461 1458 1454 1451 1452 1455 1457 1457 1456 1456 1451 1447 1451 1450 1452 1467 1469 1460 1465 1474
1467 1466 1466 1464 1463 1461 1460 1459 1458 1457 1456 1456 1456 1457 1457 1458 1461 1463 1463 1463 1464 1464 1464 1464 1465 1466 1466 1466 1464 1463 1462 1459 1457 1457 1456 1455 1455 1454 1452 1450 1449 1449 1448 1447 1445 1445 1443 1441 1443 1446 1445 1441 1439 1439 1437 1437 1438 1438 1438 1438 1440 1449 1457 1456 1454 1457 1459 1459 1460 1460 1458 1457 1458 1458 1459 1460 1460 1455 1449 1448 1449 1453 1465 1470 1467 1471 1474
1466 1466 1465 1464 1463 1461 1460 1459 1458 1457 1457 1457 1457 1457 1458 1458 1460 1462 1463 1463 1463 1464 1464 1465 1465 1465 1466 1465 1464 1464 1463 1460 1457 1456 1456 1455 1454 1453 1452 1451 1451 1451 1450 1448 1446 1447 1446 1444 1447 1451 1449 1444 1442 1440 1438 1438 1438 1439 1439 1439 1442 1449 1457 1461 1461 1462 1464 1463 1463 1463 1461 1463 1467 1466 1464 1464 1463 1456 1446 1446 1453 1457 1458 1465 1471 1472 1471
1466 1466 1465 1464 1463 1461 1460 1459 1459 1458 1457 1457 1457 1458 1458 1459 1460 1462 1462 1463 1464 1464 1464 1465 1465 1465 1465 1465 1464 1464 1464 1462 1459 1457 1456 1455 1454 1453 1452 1452 1453 1454 1453 1450 1448 1448 1447 1448 1451 1452 1450 1450 1448 1443 1439 1439 1439 1439 1440 1441 1444 1449 1457 1463 1463 1465 1467 1466 1465 1464 1464 1468 1473 1473 1470 1469 1467 1460 1452 1456 1464 1461 1455 1460 1468 1470 1473
1466 1465 1465 1464 1463 1461 1460 1459 1459 1459 1458 1458 1458 1458 1458 1459 1460 1461 1462 1462 1464 1464 1464 1464 1464 1464 1465 1465 1465 1464 1464 1462 1461 1460 1457 1456 1456 1455 1454 1453 1453 1454 1454 1452 1451 1451 1450 1450 1453 1453 1453 1454 1451 1446 1442 1441 1440 1440 1442 1445 1446 1451 1460 1464 1463 1464 1467 1467 1467 1466 1465 1467 1472 1475 1475 1472 1471 1468 1464 1467 1470 1465 1461 1465 1469 1474 1482
1466 1465 1465 1464 1463 1462 1461 1459 1459 1459 1459 1458 1458 1458 1458 1459 1460 1461 1461 1463 1464 1464 1464 1464 1464 1464 1465 1465 1465 1465 1464 1463 1461 1460 1459 1458 1457 1456 1456 1455 1453 1454 1454 1452 1452 1454 1453 1452 1453 1454 1456 1455 1451 1449 1447 1444 1443 1441 1444 1447 1447 1450 1461 1466 1463 1464 1468 1469 1469 1467 1466 1467 1469 1474 1477 1474 1472 1472 1470 1470 1471 1468 1469 1473 1474 1479 1487
1465 1465 1465 1464 1463 1462 1461 1460 1459 1459 1459 1459 1458 1458 1459 1459 1460 1461 1461 1464 1465 1465 1465 1465 1465 1466 1467 1466 1465 1464 1464 1463 1462 1460 1458 1459 1458 1457 1457 1457 1454 1454 1455 1453 1453 1454 1453 1452 1451 1451 1455 1457 1454 1453 1451 1448 1447 1445 1446 1449 1449 1451 1461 1466 1463 1465 1470 1472 1470 1468 1466 1465 1465 1472 1479 1479 1476 1476 1476 1476 1476 1473 1472 1474 1475 1479 1486
1465 1465 1465 1464 1463 1463 1462 1461 1460 1459 1459 1459 1459 1459 1459 1460 1460 1461 1461 1464 1467 1467 1466 1467 1466 1466 1468 1467 1465 1464 1463 1463 1462 1460 1458 1458 1458 1458 1458 1457 1455 1454 1454 1454 1454 1453 1451 1451 1451 1451 1454 1457 1455 1453 1452 1450 1450 1448 1448 1452 1454 1455 1460 1463 1462 1464 1472 1474 1472 1469 1465 1463 1467 1477 1484 1484 1480 1479 1479 1481 1481 1478 1474 1473 1474 1478 1486
1465 1465 1465 1464 1464 1463 1462 1461 1460 1460 1459 1459 1459 1459 1460 1460 1461 1461 1461 1464 1467 1468 1467 1467 1467 1467 1467 1467 1466 1465 1464 1463 1462 1461 1459 1458 1457 1457 1457 1456 1456 1456 1454 1453 1453 1451 1450 1450 1450 1451 1452 1452 1451 1452 1452 1450 1449 1448 1447 1451 1456 1457 1458 1463 1464 1466 1473 1475 1472 1468 1468 1470 1477 1485 1486 1484 1482 1480 1481 1485 1486 1484 1481 1480 1481 1484 1489
1465 1465 1465 1465 1464 1463 1463 1462 1461 1461 1460 1459 1459 1459 1460 1460 1461 1461 1462 1464 1468 1468 1467 1468 1468 1468 1467 1466 1466 1465 1463 1463 1462 1461 1460 1459 1457 1456 1455 1456 1458 1457 1454 1452 1450 1449 1449 1450 1450 1451 1451 1451 1453 1453 1452 1450 1449 1447 1445 1448 1454 1458 1459 1464 1467 1469 1473 1475 1471 1468 1473 1479 1485 1487 1485 1484 1484 1483 1484 1488 1489 1487 1486 1486 1488 1491 1492
1465 1465 1465 1465 1465 1464 1464 1463 1462 1461 1461 1460 1460 1460 1460 1460 1461 1461 1462 1464 1468 1469 1468 1468 1468 1467 1467 1466 1465 1463 1462 1461 1460 1459 1460 1459 1457 1456 1455 1455 1457 1455 1451 1450 1449 1448 1450 1452 1452 1453 1453 1454 1455 1454 1452 1451 1450 1449 1448 1448 1451 1456 1459 1464 1470 1472 1474 1475 1473 1473 1479 1486 1487 1486 1485 1485 1486 1485 1485 1486 1489 1491 1490 1489 1491 1495 1496
1465 1465 1465 1465 1465 1465 1464 1464 1463 1462 1462 1461 1461 1461 1461 1461 1462 1462 1462 1464 1468 1470 1468 1468 1468 1467 1466 1466 1464 1462 1461 1460 1459 1458 1458 1458 1457 1456 1455 1454 1454 1452 1449 1448 1447 1447 1450 1453 1455 1456 1457 1459 1459 1458 1456 1454 1452 1453 1452 1451 1452 1454 1457 1462 1468 1473 1475 1477 1480 1482 1483 1485 1487 1487 1488 1488 1488 1488 1486 1487 1491 1493 1492 1492 1493 1496 1497
1465 1465 1465 1466 1466 1465 1465 1465 1464 1463 1463 1463 1462 1462 1462 1462 1462 1463 1462 1463 1467 1469 1469 1468 1468 1467 1466 1465 1464 1463 1461 1460 1460 1458 1457 1457 1455 1454 1454 1454 1451 1449 1448 1447 1447 1449 1449 1451 1455 1458 1461 1462 1462 1461 1460 1457 1455 1455 1456 1456 1455 1456 1457 1460 1466 1473 1476 1477 1482 1484 1482 1483 1487 1490 1490 1488 1488 1488 1487 1487 1491 1494 1494 1494 1494 1495 1497
1465 1465 1466 1466 1466 1466 1466 1465 1465 1465 1464 1464 1464 1463 1464 1463 1463 1463 1463 1463 1465 1468 1469 1468 1468 1467 1466 1465 1464 1463 1463 1463 1462 1460 1457 1455 1454 1453 1452 1452 1450 1448 1447 1446 1449 1450 1450 1454 1459 1460 1461 1463 1461 1460 1461 1460 1458 1457 1457 1457 1457 1458 1461 1462 1464 1473 1476 1474 1476 1481 1482 1486 1491 1492 1490 1488 1487 1487 1486 1485 1489 1494 1496 1496 1496 1496 1498
1465 1465 1466 1466 1466 1466 1466 1466 1466 1466 1465 1465 1465 1465 1464 1464 1463 1463 1463 1464 1465 1468 1469 1468 1467 1467 1466 1465 1465 1464 1464 1464 1463 1462 1459 1456 1455 1454 1451 1450 1449 1447 1446 1447 1450 1451 1452 1459 1463 1461 1462 1465 1462 1459 1462 1464 1464 1462 1461 1461 1461 1462 1465 1466 1469 1476 1479 1476 1479 1485 1488 1491 1493 1492 1490 1488 1487 1487 1485 1483 1486 1492 1495 1496 1497 1497 1498
1466 1466 1466 1466 1466 1467 1467 1467 1467 1466 1466 1466 1466 1466 1465 1465 1465 1464 1464 1464 1466 1468 1470 1469 1468 1467 1467 1467 1466 1465 1465 1465 1464 1464 1462 1459 1457 1456 1453 1451 1450 1447 1446 1448 1451 1453 1456 1462 1465 1463 1463 1465 1463 1463 1467 1471 1472 1474 1472 1470 1470 1471 1472 1475 1478 1482 1484 1483 1486 1491 1493 1494 1494 1493 1490 1488 1486 1485 1484 1483 1485 1490 1494 1497 1498 1498 1499
1466 1466 1466 1466 1467 1467 1467 1467 1467 1467 1467 1467 1467 1467 1466 1466 1466 1466 1465 1465 1466 1468 1470 1469 1469 1468 1468 1468 1467 1466 1466 1465 1464 1465 1463 1460 1457 1456 1455 1454 1452 1450 1449 1450 1454 1458 1460 1465 1469 1468 1466 1466 1467 1470 1475 1479 1479 1479 1477 1475 1478 1480 1481 1482 1485 1488 1491 1491 1490 1491 1494 1495 1494 1492 1489 1486 1485 1484 1484 1485 1486 1489 1493 1497 1499 1500 1500
1466 1466 1467 1467 1467 1467 1467 1467 1468 1467 1467 1468 1468 1468 1468 1468 1468 1467 1467 1467 1467 1469 1470 1470 1470 1470 1469 1469 1468 1467 1467 1466 1465 1465 1464 1462 1458 1455 1455 1455 1455 1454 1453 1453 1457 1462 1463 1465 1470 1470 1468 1471 1472 1472 1477 1482 1483 1482 1481 1481 1486 1489 1487 1489 1493 1495 1494 1491 1489 1490 1494 1495 1494 1492 1489 1487 1487 1487 1487 1488 1488 1490 1493 1496 1498 1500 1501
1466 1467 1467 1467 1467 1467 1467 1468 1468 1468 1468 1468 1468 1469 1469 1469 1469 1469 1469 1469 1468 1469 1471 1471 1471 1471 1470 1470 1469 1469 1468 1467 1466 1465 1464 1463 1459 1457 1458 1460 1460 1459 1459 1458 1460 1464 1465 1467 1470 1471 1471 1474 1474 1474 1478 1481 1482 1484 1483 1484 1489 1492 1490 1491 1498 1498 1494 1493 1495 1498 1499 1498 1497 1495 1493 1491 1490 1490 1489 1489 1490 1493 1495 1497 1499 1501 1502
1467 1467 1467 1467 1467 1468 1468 1468 1468 1468 1468 1468 1469 1469 1470 1470 1470 1470 1470 1470 1470 1470 1472 1472 1472 1472 1471 1471 1471 1470 1469 1468 1467 1465 1464 1463 1462 1460 1461 1462 1461 1461 1462 1461 1462 1464 1465 1467 1470 1472 1475 1477 1477 1481 1484 1483 1483 1487 1487 1486 1491 1495 1492 1493 1498 1501 1499 1499 1502 1504 1502 1500 1499 1497 1496 1494 1492 1491 1491 1492 1493 1495 1497 1498 1500 1502 1503
1467 1467 1467 1467 1468 1468 1468 1468 1468 1468 1468 1469 1469 1470 1470 1471 1471 1471 1472 1472 1471 1472 1473 1473 1473 1472 1472 1472 1472 1471 1471 1469 1468 1467 1465 1464 1463 1462 1462 1462 1462 1462 1462 1461 1461 1463 1464 1467 1470 1473 1477 1481 1481 1484 1486 1486 1489 1492 1491 1490 1494 1497 1495 1495 1498 1501 1501 1502 1504 1503 1502 1502 1500 1498 1497 1495 1493 1493 1494 1494 1495 1497 1498 1500 1502 1503 1505
1466 1467 1467 1467 1468 1468 1468 1469 1469 1469 1469 1469 1469 1470 1471 1471 1472 1472 1473 1473 1473 1473 1474 1474 1474 1473 1473 1473 1473 1472 1471 1470 1469 1468 1466 1465 1464 1464 1464 1463 1463 1463 1463 1463 1463 1463 1464 1468 1471 1473 1478 1483 1484 1485 1488 1490 1492 1494 1494 1495 1496 1496 1495 1497 1499 1501 1503 1505 1506 1505 1504 1503 1502 1500 1499 1498 1497 1497 1497 1497 1498 1500 1501 1502 1505 1506 1508
1466 1467 1467 1467 1468 1468 1469 1469 1469 1469 1469 1469 1470 1470 1471 1472 1472 1473 1473 1474 1474 1474 1475 1476 1476 1475 1475 1475 1474 1473 1472 1471 1470 1469 1468 1467 1466 1465 1465 1465 1464 1464 1464 1464 1464 1464 1465 1469 1472 1474 1479 1484 1485 1488 1491 1492 1493 1494 1496 1498 1499 1497 1496 1499 1502 1504 1505 1507 1508 1507 1505 1505 1505 1503 1502 1502 1501 1501 1502 1502 1502 1503 1504 1506 1509 1511 1512
1466 1467 1467 1468 1468 1468 1469 1469 1469 1469 1470 1470 1470 1470 1471 1472 1473 1473 1474 1474 1475 1476 1477 1477 1477 1477 1477 1477 1476 1475 1474 1473 1473 1471 1470 1469 1468 1467 1467 1467 1466 1466 1466 1466 1466 1466 1467 1472 1475 1477 1481 1484 1485 1488 1492 1493 1493 1495 1497 1500 1500 1498 1498 1501 1504 1506 1508 1509 1508 1507 1507 1508 1507 1506 1506 1506 1505 1505 1506 1507 1507 1508 1509 1511 1513 1515 1517
1466 1467 1467 1468 1468 1468 1469 1469 1470 1470 1470 1470 1471 1471 1471 1472 1473 1473 1474 1475 1476 1476 1477 1478 1478 1478 1478 1478 1477 1477 1477 1476 1475 1474 1472 1471 1471 1469 1469 1468 1468 1468 1468 1467 1468 1469 1471 1475 1479 1481 1484 1486 1487 1491 1494 1495 1495 1497 1499 1500 1500 1499 1502 1504 1505 1506 1508 1508 1507 1507 1508 1510 1511 1510 1509 1510 1509 1509 1510 1511 1512 1513 1514 1515 1517 1519 1520
1466 1466 1467 1467 1468 1468 1469 1469 1470 1470 1471 1471 1471 1471 1472 1472 1473 1474 1475 1475 1476 1476 1477 1478 1479 1479 1479 1479 1479 1479 1479 1478 1477 1476 1475 1474 1473 1472 1471 1470 1470 1470 1470 1470 1472 1474 1476 1479 1483 1485 1486 1487 1489 1493 1496 1496 1497 1500 1502 1503 1501 1501 1503 1504 1504 1505 1506 1506 1506 1507 1508 1510 1512 1512 1511 1512 1512 1512 1512 1513 1515 1516 1517 1518 1519 1520 1521
1465 1466 1467 1467 1468 1468 1469 1469 1470 1470 1471 1471 1472 1472 1472 1473 1474 1474 1475 1476 1476 1477 1478 1479 1480 1480 1480 1480 1481 1480 1480 1480 1479 1478 1477 1476 1475 1474 1473 1473 1472 1473 1473 1473 1475 1478 1481 1484 1486 1487 1488 1488 1490 1495 1498 1501 1503 1505 1505 1505 1503 1503 1503 1504 1503 1504 1505 1505 1507 1509 1509 1510 1512 1513 1513 1514 1514 1514 1514 1515 1516 1517 1518 1519 1520 1521 1521
1465 1466 1466 1467 1467 1468 1468 1469 1470 1471 1471 1472 1472 1473 1473 1474 1474 1475 1476 1477 1477 1478 1479 1479 1480 1481 1482 1482 1482 1481 1481 1481 1480 1480 1479 1478 1477 1477 1477 1476 1476 1476 1476 1477 1478 1481 1484 1486 1487 1489 1490 1490 1491 1496 1502 1505 1507 1507 1506 1505 1505 1504 1504 1504 1504 1504 1506 1507 1509 1510 1511 1512 1513 1514 1515 1516 1516 1516 1516 1517 1518 1519 1520 1521 1521 1522 1522
1465 1465 1466 1467 1467 1468 1469 1469 1470 1471 1472 1472 1473 1473 1474 1474 1475 1476 1476 1477 1478 1479 1479 1480 1481 1482 1483 1483 1483 1483 1483 1482 1482 1481 1481 1481 1481 1480 1480 1480 1479 1479 1480 1480 1482 1484 1486 1488 1489 1491 1492 1491 1492 1498 1503 1505 1506 1508 1507 1507 1506 1506 1506 1506 1506 1506 1508 1509 1510 1512 1513 1514 1515 1516 1516 1517 1518 1518 1518 1519 1520 1521 1522 1522 1523 1523 1524
1464 1465 1466 1467 1467 1468 1469 1469 1470 1471 1472 1473 1473 1474 1474 1475 1476 1476 1477 1478 1479 1479 1480 1481 1482 1483 1484 1484 1484 1484 1484 1484 1484 1483 1483 1483 1483 1483 1483 1483 1483 1483 1483 1483 1485 1488 1490 1491 1492 1493 1494 1493 1495 1501 1505 1506 1507 1509 1509 1508 1508 1508 1508 1508 1509 1509 1510 1511 1512 1514 1515 1516 1516 1517 1517 1518 1519 1519 1520 1520 1521 1522 1523 1523 1524 1524 1525
1464 1465 1465 1466 1467 1468 1469 1470 1471 1471 1472 1473 1474 1474 1475 1476 1476 1477 1477 1478 1479 1480 1481 1482 1484 1486 1486 1485 1485 1485 1485 1485 1485 1485 1485 1485 1485 1485 1486 1485 1486 1486 1486 1487 1489 1491 1493 1494 1494 1495 1496 1497 1498 1503 1507 1508 1509 1510 1510 1509 1510 1510 1510 1511 1511 1512 1512 1513 1514 1515 1516 1517 1517 1518 1518 1519 1520 1520 1521 1521 1522 1522 1523 1523 1524 1525 1525
1463 1465 1466 1466 1467 1468 1469 1470 1471 1472 1473 1473 1474 1475 1475 1476 1477 1477 1478 1479 1480 1481 1481 1483 1485 1487 1487 1487 1487 1487 1486 1486 1487 1487 1487 1487 1487 1487 1488 1488 1488 1489 1490 1491 1493 1494 1496 1496 1497 1498 1500 1501 1502 1505 1509 1511 1511 1511 1511 1511 1511 1512 1512 1513 1513 1514 1514 1515 1515 1515 1516 1517 1517 1518 1519 1520 1520 1521 1522 1522 1522 1523 1523 1524 1524 1525 1525
1463 1464 1466 1467 1467 1469 1470 1471 1472 1473 1473 1474 1474 1475 1476 1477 1477 1478 1479 1480 1480 1481 1482 1483 1484 1486 1488 1489 1489 1488 1488 1488 1488 1489 1489 1489 1489 1490 1490 1490 1491 1493 1494 1495 1496 1497 1499 1499 1500 1502 1504 1505 1506 1509 1511 1511 1511 1511 1511 1512 1512 1513 1513 1514 1514 1515 1515 1516 1516 1516 1516 1517 1517 1518 1519 1520 1521 1521 1522 1522 1522 1523 1523 1524 1525 1525 1526
1463 1465 1466 1467 1468 1469 1470 1471 1472 1473 1474 1474 1475 1475 1476 1477 1478 1479 1480 1480 1480 1481 1482 1483 1485 1487 1488 1489 1490 1489 1489 1489 1490 1490 1490 1490 1491 1491 1492 1492 1495 1496 1497 1498 1499 1501 1502 1501 1502 1505 1508 1509 1509 1511 1512 1511 1511 1512 1512 1512 1513 1514 1514 1514 1515 1515 1516 1516 1517 1517 1517 1518 1518 1519 1519 1520 1521 1521 1522 1522 1523 1523 1524 1524 1525 1525 1526
1464 1465 1466 1467 1469 1470 1471 1472 1473 1473 1474 1475 1475 1476 1477 1478 1479 1480 1480 1481 1481 1481 1482 1483 1485 1488 1489 1489 1489 1490 1490 1490 1491 1491 1491 1492 1493 1493 1494 1495 1497 1499 1500 1501 1502 1503 1503 1503 1505 1508 1511 1512 1512 1512 1512 1512 1513 1513 1513 1513 1514 1514 1514 1515 1515 1515 1516 1516 1517 1518 1518 1518 1519 1519 1520 1520 1521 1521 1521 1522 1522 1522 1523 1524 1524 1525 1525
1464 1465 1467 1468 1469 1470 1471 1472 1473 1474 1475 1475 1476 1477 1478 1479 1479 1480 1481 1481 1482 1482 1483 1484 1486 1488 1488 1489 1490 1490 1490 1491 1492 1493 1493 1494 1495 1495 1496 1498 1499 1501 1504 1506 1506 1505 1505 1508 1510 1512 1513 1513 1513 1512 1512 1513 1514 1514 1514 1515 1515 1515 1515 1515 1515 1515 1516 1516 1517 1518 1518 1518 1519 1519 1520 1520 1520 1521 1521 1521 1522 1522 1523 1524 1524 1525 1525
1464 1466 1467 1468 1469 1470 1471 1472 1473 1475 1476 1476 1477 1478 1479 1479 1480 1481 1482 1482 1482 1483 1484 1485 1486 1488 1488 1489 1490 1491 1491 1491 1493 1494 1495 1496 1496 1496 1498 1499 1500 1502 1506 1508 1506 1505 1508 1512 1515 1515 1514 1513 1514 1514 1513 1514 1514 1514 1515 1515 1515 1515 1515 1514 1514 1515 1515 1516 1517 1517 1518 1518 1519 1519 1520 1520 1520 1521 1521 1521 1521 1522 1523 1523 1524 1524 1524
1465 1466 1467 1469 1469 1470 1471 1473 1474 1475 1476 1477 1478 1478 1479 1480 1481 1481 1482 1484 1484 1484 1485 1486 1487 1488 1489 1489 1490 1491 1491 1491 1492 1493 1495 1496 1497 1497 1499 1500 1500 1504 1509 1510 1506 1506 1509 1513 1517 1517 1514 1514 1515 1514 1514 1515 1515 1515 1516 1516 1515 1515 1515 1514 1514 1515 1516 1516 1517 1517 1518 1519 1519 1520 1520 1520 1520 1520 1520 1520 1521 1521 1522 1523 1523 1523 1524
1465 1466 1468 1469 1470 1471 1472 1474 1475 1476 1477 1477 1478 1479 1480 1481 1481 1482 1483 1485 1486 1486 1486 1486 1487 1488 1489 1489 1490 1491 1492 1492 1493 1493 1494 1497 1498 1498 1499 1501 1502 1506 1510 1509 1507 1507 1510 1513 1517 1517 1514 1514 1515 1515 1515 1516 1516 1516 1516 1516 1516 1515 1515 1515 1515 1515 1515 1516 1517 1517 1518 1519 1519 1520 1520 1520 1520 1520 1520 1520 1521 1521 1522 1522 1522 1523 1523
1465 1467 1468 1469 1471 1472 1473 1474 1475 1476 1477 1477 1479 1481 1482 1482 1482 1482 1483 1484 1485 1485 1486 1487 1488 1489 1490 1490 1491 1491 1492 1493 1493 1493 1495 1497 1498 1499 1501 1503 1504 1505 1507 1508 1507 1508 1511 1514 1516 1515 1514 1514 1515 1515 1515 1516 1516 1516 1517 1517 1516 1516 1516 1516 1515 1515 1515 1515 1516 1517 1517 1518 1519 1520 1520 1520 1520 1520 1520 1520 1521 1521 1521 1521 1521 1522 1522
1466 1467 1469 1470 1471 1472 1474 1475 1475 1476 1478 1478 1479 1482 1484 1483 1482 1483 1483 1483 1484 1485 1486 1487 1488 1489 1490 1491 1492 1492 1492 1493 1494 1494 1495 1497 1499 1500 1502 1504 1505 1505 1506 1508 1508 1508 1511 1514 1514 1513 1512 1513 1515 1515 1516 1516 1517 1517 1517 1517 1517 1517 1516 1516 1516 1516 1516 1515 1516 1517 1517 1518 1518 1519 1519 1519 1519 1520 1520 1520 1521 1521 1521 1521 1521 1521 1522
1467 1468 1469 1470 1472 1473 1473 1475 1476 1477 1479 1480 1480 1481 1483 1483 1483 1483 1483 1483 1483 1484 1485 1486 1488 1489 1490 1491 1492 1493 1493 1494 1494 1495 1496 1498 1500 1502 1503 1505 1505 1506 1507 1509 1511 1513 1514 1514 1513 1511 1512 1513 1514 1515 1516 1516 1516 1517 1517 1517 1517 1517 1517 1517 1516 1516 1516 1516 1517 1517 1517 1518 1518 1519 1519 1519 1519 1519 1519 1520 1520 1520 1520 1520 1521 1521 1522
1467 1468 1469 1471 1473 1473 1473 1475 1477 1477 1477 1478 1479 1479 1479 1480 1480 1481 1481 1481 1482 1483 1484 1486 1487 1488 1490 1492 1492 1493 1494 1494 1494 1496 1498 1499 1502 1504 1505 1505 1506 1508 1510 1512 1515 1515 1514 1513 1511 1510 1512 1513 1514 1515 1516 1516 1517 1517 1517 1517 1517 1517 1517 1517 1517 1516 1516 1517 1517 1517 1517 1518 1518 1518 1518 1519 1519 1519 1519 1519 1520 1520 1520 1520 1520 1521 1521
1467 1468 1469 1471 1473 1474 1474 1476 1477 1477 1476 1476 1476 1476 1476 1476 1478 1479 1479 1480 1481 1483 1484 1486 1487 1489 1490 1492 1492 1493 1494 1494 1496 1498 1499 1500 1502 1505 1506 1505 1506 1509 1513 1515 1515 1513 1512 1510 1510 1511 1512 1513 1514 1515 1516 1516 1517 1517 1517 1517 1517 1517 1517 1517 1517 1516 1516 1516 1517 1517 1517 1517 1517 1518 1518 1518 1518 1518 1518 1519 1519 1519 1519 1520 1520 1520 1521
1467 1468 1468 1470 1472 1474 1474 1475 1475 1474 1474 1473 1474 1474 1474 1475 1477 1478 1479 1480 1482 1483 1485 1487 1488 1489 1491 1492 1493 1494 1494 1495 1497 1499 1501 1501 1503 1506 1506 1506 1508 1512 1513 1513 1513 1512 1511 1510 1510 1510 1512 1513 1514 1515 1516 1516 1516 1517 1517 1517 1517 1517 1517 1517 1517 1516 1516 1516 1516 1516 1517 1517 1517 1517 1517 1517 1517 1517 1517 1518 1518 1518 1519 1519 1519 1520 1520
1467 1467 1468 1469 1471 1473 1473 1472 1472 1473 1473 1473 1473 1474 1475 1476 1477 1478 1480 1481 1483 1484 1485 1487 1488 1490 1492 1493 1494 1495 1495 1496 1498 1500 1501 1502 1504 1506 1507 1509 1512 1514 1513 1511 1510 1509 1509 1508 1509 1511 1512 1513 1514 1515 1515 1516 1516 1516 1516 1517 1517 1517 1517 1517 1516 1516 1516 1516 1516 1516 1516 1516 1516 1516 1516 1516 1516 1516 1516 1517 1517 1517 1517 1518 1518 1519 1519
1467 1467 1468 1469 1471 1471 1472 1471 1472 1473 1473 1473 1473 1475 1475 1476 1478 1479 1481 1482 1483 1485 1486 1487 1488 1490 1493 1494 1495 1496 1497 1498 1499 1501 1502 1502 1504 1507 1509 1511 1512 1512 1510 1509 1509 1507 1507 1508 1510 1511 1512 1513 1514 1515 1515 1515 1516 1516 1516 1516 1516 1516 1516 1516 1516 1516 1516 1516 1516 1516 1516 1515 1515 1515 1515 1515 1515 1515 1516 1516 1516 1516 1516 1517 1517 1517 1518
1467 1467 1468 1469 1470 1471 1471 1471 1472 1474 1474 1474 1475 1475 1476 1477 1478 1480 1482 1483 1484 1486 1487 1488 1489 1491 1494 1496 1497 1498 1499 1499 1500 1501 1502 1503 1506 1508 1509 1510 1510 1509 1507 1507 1507 1507 1507 1509 1510 1511 1512 1513 1514 1514 1515 1515 1515 1515 1516 1516 1516 1516 1516 1516 1516 1515 1515 1515 1515 1515 1515 1515 1515 1514 1514 1514 1514 1514 1515 1515 1515 1515 1515 1516 1516 1516 1516
1467 1468 1468 1469 1469 1470 1470 1471 1471 1473 1474 1474 1475 1476 1477 1478 1479 1481 1483 1484 1485 1486 1488 1489 1491 1492 1494 1496 1498 1499 1499 1499 1501 1503 1503 1504 1507 1507 1506 1506 1507 1506 1505 1505 1506 1507 1508 1509 1511 1511 1512 1513 1513 1514 1514 1514 1515 1515 1515 1515 1515 1515 1515 1515 1515 1515 1514 1514 1514 1514 1514 1514 1513 1513 1513 1513 1513 1513 1513 1514 1514 1514 1514 1514 1515 1515 1515
1467 1467 1468 1469 1469 1469 1470 1470 1471 1472 1474 1475 1476 1477 1478 1479 1480 1482 1483 1485 1486 1487 1488 1490 1491 1493 1494 1496 1497 1498 1498 1500 1503 1505 1504 1504 1504 1505 1504 1503 1503 1504 1504 1505 1507 1508 1508 1509 1510 1511 1512 1513 1513 1513 1514 1514 1514 1514 1515 1515 1515 1515 1514 1514 1514 1514 1513 1513 1513 1513 1513 1513 1512 1512 1512 1512 1512 1512 1512 1512 1513 1513 1513 1513 1513 1513 1514
Wind_Speed
9 7 6 8 10 12 13 13 10 7 6 3 2 5 8 7 5 5 4 3 6 3 2 2 2 0 2 3 4 4 3 2 2 3 3 3 3 2 2 3 4 4 4 3 2 3 2 2 2 2 2 1 2 5 3 1 3 3 1 2 1 2 3 3 1 4 4 6 6 2 2 3 3 3 2 2 1 3 5 5 4 3 3 2 3 0 4
7 5 6 8 9 11 13 12 9 7 6 3 3 7 10 10 8 6 4 2 6 3 0 1 2 3 2 3 4 5 3 3 2 2 2 2 1 1 2 3 3 3 3 2 3 3 1 1 0 0 2 0 5 6 0 3 1 1 2 3 2 1 1 3 3 3 4 5 5 5 4 3 2 2 4 3 2 4 4 2 3 3 4 4 4 2 4
6 4 5 7 9 11 12 10 9 7 5 1 4 9 12 9 6 4 4 4 7 3 1 3 1 2 2 3 4 4 3 4 5 5 4 4 2 1 3 4 3 2 1 1 3 2 0 1 3 4 2 1 4 8 5 3 3 1 2 3 3 2 1 3 4 3 2 1 2 3 2 2 2 2 5 5 3 3 3 3 3 2 3 3 5 4 3
4 4 5 7 9 10 10 9 8 7 3 3 7 11 10 5 2 2 2 4 5 2 1 2 2 1 1 2 3 2 2 4 5 4 4 4 3 3 3 3 2 2 3 2 2 3 2 1 4 3 4 2 3 8 9 7 6 5 6 6 4 3 2 2 5 5 5 5 5 5 1 2 2 4 6 6 4 2 3 4 2 4 3 3 1 4 3
3 3 5 7 9 10 9 7 7 7 5 6 9 8 5 3 1 2 2 1 1 2 2 2 1 1 1 1 2 2 3 4 3 1 1 3 4 2 1 2 3 2 3 2 1 2 3 4 4 2 4 2 3 7 7 9 9 6 6 7 3 4 3 2 5 4 0 2 3 3 2 4 2 4 6 7 7 5 4 5 3 5 6 1 3 4 6
3 4 5 7 9 10 8 6 6 7 6 5 5 4 3 2 2 2 3 1 0 2 1 1 1 1 1 1 1 2 3 4 2 2 3 5 5 2 1 4 4 3 3 1 1 3 3 4 3 2 3 3 4 6 5 7 11 6 4 7 4 5 2 1 3 5 5 5 4 3 5 5 4 6 7 8 8 6 5 3 1 3 5 4 6 7 5
2 4 6 7 9 9 8 5 4 6 6 3 2 2 3 4 4 3 3 2 1 1 2 2 2 2 0 1 2 1 3 5 2 2 3 5 5 3 2 5 7 6 4 2 2 3 2 2 2 2 4 3 2 3 2 4 9 7 4 4 3 4 2 1 3 5 6 7 6 5 5 4 5 8 8 8 7 7 7 4 2 4 6 6 8 9 6
3 4 6 7 8 9 7 5 2 3 5 4 2 2 3 5 4 3 4 4 3 4 3 2 3 3 2 2 2 1 2 4 3 2 1 2 4 3 2 7 8 5 3 3 4 1 2 3 2 1 3 4 2 2 1 2 5 5 3 2 3 3 2 1 2 4 4 6 6 6 5 5 6 8 10 10 8 7 6 5 4 5 7 8 9 9 5
3 5 6 7 8 8 8 6 3 2 2 2 1 2 4 5 4 4 5 3 5 6 3 2 3 2 3 1 2 2 1 3 3 3 1 2 2 4 4 8 7 3 4 5 5 2 2 4 3 2 2 4 6 3 2 3 5 4 3 2 3 3 2 0 3 3 1 5 6 6 5 5 6 8 10 10 7 4 4 4 3 1 5 10 9 5 3
4 5 6 6 7 8 8 8 5 2 1 1 1 3 5 6 6 5 5 2 4 4 2 3 3 0 1 1 2 2 3 5 3 2 3 3 2 5 5 4 4 4 3 4 2 6 8 7 6 4 6 11 12 12 11 9 5 1 2 2 2 3 3 1 2 3 0 4 5 5 3 3 2 4 6 6 4 2 3 4 6 5 1 6 5 4 5
4 5 6 6 7 8 8 9 7 4 2 2 2 4 5 6 6 5 5 3 3 3 2 3 2 0 2 3 2 2 3 6 3 2 1 3 2 7 7 5 4 3 2 4 11 13 8 3 1 2 0 1 4 9 10 6 2 1 4 3 2 3 4 2 1 2 1 3 4 3 1 1 1 3 4 3 2 4 5 4 6 6 4 5 5 6 8
5 5 6 5 6 7 8 9 9 7 6 3 2 3 4 5 6 4 4 3 2 3 3 1 1 1 4 5 3 3 3 5 5 3 4 4 3 6 6 4 2 2 7 16 16 3 6 8 8 7 7 6 5 3 4 5 6 4 3 5 4 4 4 2 1 2 2 2 3 2 1 1 1 1 2 3 5 7 8 7 8 7 7 10 9 8 8
5 6 6 5 5 6 7 8 9 9 8 6 4 3 3 4 6 5 5 5 0 2 1 1 3 4 6 6 5 5 5 7 7 5 6 5 4 4 4 1 2 8 17 19 9 5 8 6 6 4 4 4 3 5 8 9 9 8 6 5 6 5 4 2 2 2 2 1 2 2 1 0 1 1 1 2 3 3 4 6 8 7 5 7 10 9 9
5 6 6 6 5 5 5 7 9 9 9 7 5 4 4 5 6 4 4 5 0 2 0 2 5 5 5 5 5 6 6 9 7 2 4 4 4 4 5 6 9 13 15 11 2 4 3 3 4 2 3 4 3 5 6 6 7 8 7 5 3 5 5 3 2 1 2 2 2 1 1 1 1 1 2 1 1 2 1 2 4 5 4 5 10 10 10
6 6 6 6 5 4 4 5 8 8 8 7 6 6 5 3 2 1 2 5 3 1 2 2 4 6 5 5 5 4 5 6 5 3 4 5 5 4 6 9 11 11 7 2 3 3 2 3 3 2 1 1 1 1 3 3 4 6 6 6 5 5 4 4 2 1 1 3 3 1 1 0 1 1 3 3 4 4 3 1 2 3 4 8 12 11 11
5 6 7 7 6 5 4 4 6 7 7 6 6 7 6 4 2 1 3 6 5 1 3 4 4 4 4 3 4 4 2 3 3 4 5 5 5 8 10 9 9 7 3 2 4 4 3 3 3 3 2 2 2 1 1 1 2 4 5 7 8 7 4 4 4 2 1 3 3 1 1 1 1 3 6 9 8 5 3 2 1 3 7 11 13 12 12
5 6 7 7 6 5 4 4 5 6 6 5 5 6 7 8 7 2 6 10 9 3 2 5 5 3 2 2 3 3 2 3 2 1 2 4 6 11 14 12 9 9 6 3 2 4 4 3 2 2 1 1 1 2 1 2 2 5 7 7 8 6 4 4 4 2 2 3 2 1 1 0 1 3 9 13 10 3 2 2 1 6 12 14 13 14 15
6 6 7 7 6 5 5 5 5 5 6 5 4 5 6 8 8 6 10 14 11 5 5 7 7 5 5 3 3 3 3 4 3 1 3 4 3 8 14 12 8 10 8 4 2 3 4 3 2 2 1 2 1 2 1 2 2 3 4 3 4 4 3 3 3 3 3 3 2 1 1 1 2 8 15 15 7 1 2 1 4 12 17 15 13 15 16
6 7 7 7 6 5 4 4 4 4 5 5 4 6 7 7 7 7 11 13 10 5 6 8 9 9 9 8 7 6 5 5 4 2 1 2 5 9 10 6 5 7 7 4 3 3 3 2 1 2 2 3 2 2 2 2 1 2 2 3 3 3 3 3 2 2 2 2 2 1 1 0 6 15 17 9 1 1 1 1 9 20 21 16 15 15 13
6 7 7 6 6 4 4 4 4 4 4 4 5 7 10 12 12 13 14 15 13 10 8 8 10 11 11 12 12 11 9 7 6 3 2 2 10 11 4 2 6 8 5 4 3 2 3 1 2 1 3 1 1 2 2 1 2 2 2 3 2 2 1 2 2 1 2 2 3 2 1 3 13 17 9 2 2 2 1 6 15 23 23 19 17 13 9
6 6 6 6 5 4 4 4 4 4 4 5 6 7 10 12 12 10 9 10 11 9 8 7 8 10 11 12 12 13 12 11 9 6 2 5 10 8 3 2 4 4 1 2 2 1 1 1 0 1 2 0 1 2 2 1 3 4 2 4 2 2 1 1 1 1 1 2 2 1 1 8 14 11 3 2 4 1 5 11 16 20 20 20 17 12 12
6 5 6 6 5 5 5 4 5 5 5 6 6 6 8 9 7 4 5 7 9 8 7 7 8 10 11 11 12 14 14 14 13 11 8 7 9 9 4 1 2 3 1 1 3 2 1 2 2 2 2 2 2 2 2 3 2 4 3 4 3 2 2 4 2 1 3 3 2 2 4 9 10 6 4 6 6 5 10 14 17 17 18 18 17 17 20
5 5 5 5 4 4 4 4 5 5 4 5 6 5 7 8 6 6 8 9 10 9 8 7 8 10 12 13 14 15 15 14 13 13 10 7 6 8 7 5 4 3 3 3 3 2 2 3 2 3 3 2 2 3 3 4 2 1 3 3 2 1 3 5 3 2 3 6 7 5 7 10 11 11 11 12 12 11 12 16 16 15 15 16 18 22 26
5 5 4 4 3 3 3 3 4 4 4 4 6 7 8 7 7 8 9 8 7 6 7 8 9 9 10 12 14 15 15 14 12 12 12 9 6 5 7 8 7 5 5 6 5 5 6 4 2 3 3 1 2 4 4 3 2 1 3 3 3 3 5 4 3 1 2 4 6 6 6 9 12 16 18 18 18 15 15 17 17 16 18 19 21 24 26
6 5 5 4 3 2 2 2 3 4 4 4 6 8 8 6 6 8 7 5 4 4 3 5 8 8 7 10 14 15 16 14 12 10 11 12 11 9 9 10 10 9 9 9 9 10 9 5 2 4 3 2 2 2 2 2 2 2 3 2 2 3 4 4 3 2 3 2 2 5 11 13 13 18 21 22 23 22 19 20 20 21 22 23 23 24 24
6 5 5 4 3 2 3 2 2 4 5 5 5 6 7 7 7 6 6 6 8 7 3 2 5 7 8 10 13 15 15 13 11 11 11 12 12 10 9 11 13 13 14 16 16 16 12 5 3 4 3 3 4 3 2 2 2 2 3 1 3 3 3 2 2 3 4 3 3 6 12 13 13 18 22 23 24 25 24 24 24 24 25 25 23 21 19
7 6 5 4 3 2 2 3 3 4 5 5 5 5 6 8 7 7 9 10 8 5 2 2 4 8 10 12 13 14 14 14 12 12 13 13 12 9 8 9 11 13 15 16 17 16 12 7 4 3 2 4 5 4 2 2 3 3 3 4 6 3 1 2 3 3 1 2 4 4 5 5 8 16 20 19 20 22 22 22 22 22 22 20 19 18 15
7 6 5 4 4 3 2 3 4 4 5 6 6 6 7 7 7 10 12 9 4 4 6 5 4 6 9 11 13 13 13 13 14 14 15 15 16 15 13 12 13 14 15 14 11 9 7 5 3 2 2 4 5 4 2 2 4 4 2 6 6 2 3 2 3 2 3 6 8 7 9 9 10 15 17 15 15 16 18 18 17 16 15 13 13 13 13
7 6 6 5 4 3 3 4 4 5 7 7 6 6 7 7 8 11 10 5 5 10 11 7 4 4 5 8 10 11 12 12 13 15 15 15 17 19 19 18 18 17 17 16 13 9 6 5 4 4 4 4 3 2 2 3 3 2 3 6 6 2 1 1 2 3 4 8 10 10 13 14 13 15 16 15 14 15 17 17 15 14 13 11 10 11 12
8 7 6 5 5 4 4 5 5 6 7 7 6 6 6 6 7 8 7 6 9 10 8 5 3 3 5 8 9 9 9 10 12 15 17 17 18 19 19 20 19 18 18 17 14 8 5 6 6 6 7 6 4 2 2 2 2 2 4 6 6 6 5 5 5 6 9 10 10 11 15 16 15 15 15 14 14 14 15 15 14 13 12 10 9 9 9
8 7 6 5 5 5 5 6 6 6 7 7 6 4 4 4 5 7 9 10 10 8 6 6 4 2 4 7 8 8 8 8 10 13 15 16 16 17 18 18 19 19 18 18 14 9 5 5 5 5 8 9 7 4 2 3 2 2 5 5 8 10 10 10 11 11 11 11 12 14 16 15 14 14 13 13 12 12 13 13 12 10 9 7 6 6 6
8 7 6 6 6 6 7 7 7 7 7 7 5 3 4 5 6 7 10 10 8 7 7 6 3 1 1 4 7 8 8 8 8 10 11 12 13 14 16 17 18 17 15 13 11 7 5 6 7 8 10 10 7 3 3 4 3 0 2 4 9 11 11 12 12 11 10 12 14 14 13 12 11 11 11 12 11 9 10 11 10 8 8 7 5 5 5
8 7 7 6 7 7 8 8 9 8 7 7 5 4 5 7 7 7 9 9 8 8 7 4 2 0 1 2 5 6 6 6 8 10 11 11 10 11 13 15 15 14 13 10 6 5 6 7 9 9 10 10 7 4 3 3 2 1 2 6 10 10 10 10 10 9 9 10 9 8 9 10 9 8 9 11 10 8 8 8 8 8 8 6 5 6 7
8 7 7 7 8 9 9 9 10 8 7 6 5 4 5 6 6 7 9 8 8 7 4 4 3 1 2 2 3 5 5 5 7 8 8 9 10 9 9 11 11 10 11 10 7 5 6 7 7 6 6 7 6 4 1 1 1 3 6 9 11 11 10 10 9 8 9 8 7 8 10 9 8 9 11 11 10 9 8 7 6 6 7 7 6 6 7
8 7 8 9 10 10 11 11 10 8 7 6 5 5 6 6 6 7 9 8 6 4 2 3 4 2 2 2 3 4 5 6 7 6 5 7 10 9 7 7 7 6 6 7 5 4 5 6 5 3 3 5 4 2 2 3 3 7 10 11 11 11 11 9 9 8 8 8 8 9 9 7 7 9 11 10 9 9 8 8 7 6 6 6 6 6 6
8 9 11 13 13 12 11 11 10 8 7 6 5 6 8 8 7 8 8 6 4 3 3 4 4 2 3 2 1 2 4 5 6 6 4 4 6 8 7 6 4 4 5 5 5 4 4 5 4 2 3 3 2 1 3 4 7 9 11 12 12 11 7 6 8 10 9 9 10 10 8 6 6 8 9 9 10 10 10 10 10 9 7 7 7 7 7
11 13 15 16 14 12 11 10 10 8 6 7 8 9 10 10 9 8 6 5 4 4 5 6 4 2 3 3 1 1 2 2 3 5 6 4 4 5 7 5 2 2 5 5 4 4 5 5 4 3 1 1 1 2 0 4 6 6 6 9 10 7 2 3 8 12 12 11 11 9 7 7 7 8 9 9 10 11 11 10 10 9 7 7 6 6 6
14 17 18 16 12 9 8 9 9 9 9 10 10 10 8 7 7 5 4 4 4 3 4 5 3 3 4 4 2 2 2 1 2 4 4 4 3 3 5 4 2 2 2 2 3 4 5 5 4 3 0 1 3 6 6 7 5 3 2 3 5 5 4 4 9 14 12 10 10 9 8 8 9 9 10 10 10 10 10 10 11 10 9 7 7 7 7
17 18 17 13 9 6 8 11 12 11 11 11 8 5 4 4 3 2 2 3 3 3 4 4 3 3 3 3 3 3 3 2 3 2 2 3 2 1 2 2 2 3 3 0 2 3 4 2 3 3 1 3 4 8 10 10 9 7 5 4 2 4 6 5 9 13 12 8 8 8 8 8 7 7 7 8 10 11 11 11 12 12 10 8 8 8 9
18 17 14 10 8 9 12 14 14 11 9 7 4 3 3 3 2 1 1 3 2 2 3 3 4 4 4 4 4 4 3 3 3 3 2 2 2 2 2 2 1 3 3 1 2 2 3 1 2 2 1 3 1 6 9 9 8 6 4 4 5 5 6 4 5 11 13 9 6 6 7 5 3 2 2 3 5 7 9 11 12 11 9 8 8 8 7
15 13 11 10 11 14 15 14 11 7 5 3 2 2 1 2 1 2 3 2 1 0 2 4 4 3 4 4 4 4 4 5 5 5 4 2 3 3 3 1 1 3 2 2 2 2 3 2 2 1 3 4 4 6 8 8 6 5 4 4 5 6 6 5 3 7 11 11 8 6 5 4 3 3 1 2 4 5 7 8 8 8 7 7 7 6 5
13 11 12 13 15 15 12 9 6 4 3 2 2 1 1 0 1 1 2 1 2 2 3 4 4 5 6 6 5 4 4 4 3 3 3 1 2 3 2 1 2 3 1 2 1 3 4 2 1 3 4 7 8 8 8 8 6 5 4 3 4 6 6 5 4 2 4 5 6 5 6 5 4 3 1 3 5 5 4 3 4 5 6 7 7 5 3
12 12 14 15 13 10 7 4 2 2 2 2 2 1 1 1 1 1 1 1 3 4 5 6 8 8 7 6 5 4 4 3 3 3 3 2 1 2 3 2 2 1 1 1 2 4 2 2 3 4 6 10 10 9 9 8 6 5 4 3 3 4 5 5 3 2 1 1 1 4 5 5 4 3 3 6 6 4 3 2 3 4 6 6 5 3 4
13 14 13 11 7 6 4 1 1 1 1 0 1 2 1 1 1 0 1 3 4 5 7 10 11 8 5 3 4 4 3 3 3 3 3 2 2 2 2 1 1 1 1 2 3 2 1 3 3 5 9 11 10 9 9 8 5 4 3 2 3 3 3 3 3 2 2 1 3 4 4 3 3 3 4 4 3 3 3 3 4 4 4 4 4 4 5
13 11 9 5 2 2 2 1 1 0 1 2 2 3 4 4 3 3 4 6 8 10 12 14 13 10 6 4 3 2 2 2 3 2 1 1 3 2 1 1 0 2 2 2 2 0 1 3 4 7 11 11 10 9 9 7 4 2 0 2 2 3 3 3 2 3 4 4 5 5 4 4 4 5 4 3 3 3 4 4 4 4 4 4 4 5 4
10 8 6 3 1 0 1 1 1 1 2 3 4 5 6 7 6 6 8 11 13 15 16 15 14 11 7 4 3 2 3 3 3 1 1 2 2 1 1 1 2 3 3 2 1 1 3 4 5 9 12 10 9 9 8 6 4 2 1 2 2 2 2 2 1 2 4 5 6 6 6 5 5 6 5 5 4 5 6 6 6 6 6 6 5 5 5
7 5 4 3 1 0 1 1 2 2 2 3 4 5 7 10 11 10 11 13 15 17 16 14 12 10 7 5 3 2 3 3 2 1 2 2 2 1 1 2 1 1 2 1 2 4 4 4 6 10 11 9 8 8 7 5 4 3 2 2 3 3 3 3 3 3 2 3 5 6 6 6 6 7 7 7 6 7 7 8 8 8 8 7 7 6 7
5 4 3 2 1 2 1 2 3 2 0 2 5 7 12 15 14 12 12 14 15 17 16 14 11 8 5 4 3 2 3 4 3 0 1 2 2 1 2 2 1 2 2 4 4 4 4 6 10 12 10 8 8 7 6 4 4 4 4 4 4 4 3 3 3 3 3 3 3 4 4 5 6 7 7 8 8 8 7 8 9 9 9 9 10 10 10
4 4 3 2 2 2 1 3 4 2 2 5 10 13 15 17 16 15 15 16 16 15 14 11 9 5 1 2 2 2 2 2 1 1 2 3 2 1 1 1 1 2 2 3 4 4 6 11 12 11 9 8 7 6 5 5 5 6 5 5 4 4 4 4 4 4 4 4 4 4 4 5 5 6 7 7 7 7 7 7 8 9 9 10 11 11 12
3 3 2 2 3 2 2 4 5 3 2 7 13 15 16 19 19 16 15 16 15 13 10 7 6 4 1 2 3 2 1 0 1 2 2 1 1 1 2 1 2 3 4 4 4 7 11 13 12 10 9 7 6 5 5 6 6 6 5 5 4 4 4 3 4 4 4 5 5 6 6 6 6 6 6 5 6 7 8 8 9 9 9 9 9 10 10
2 2 2 3 3 3 3 5 5 4 5 10 14 16 18 20 19 15 14 15 14 10 6 4 3 3 3 2 1 1 1 1 2 3 1 2 2 3 3 2 5 5 5 5 8 12 13 11 9 8 7 5 4 4 5 6 6 6 5 5 5 4 4 5 5 5 5 6 6 6 6 6 6 6 6 6 7 8 9 9 9 9 8 8 8 9 9
2 2 2 3 3 3 3 4 7 9 11 14 16 16 17 17 15 14 14 13 10 6 5 4 3 3 2 1 2 2 2 2 2 1 0 2 2 3 3 4 6 8 9 10 11 12 11 9 7 5 4 4 4 5 6 7 7 6 5 5 5 5 5 5 5 5 5 6 6 7 7 6 6 6 6 6 7 8 8 7 7 7 7 7 7 8 10
Wind_Direction
338 343 349 345 342 339 337 344 1 18 22 29 114 135 134 124 111 115 104 164 190 175 3 341 1 203 238 292 277 273 288 260 279 301 271 238 225 233 245 227 226 226 230 245 253 243 220 182 190 203 195 183 291 306 309 26 38 67 124 251 198 112 77 73 318 295 299 298 298 332 41 71 60 23 50 91 143 137 142 174 173 135 157 157 85 100 263
344 350 354 351 347 342 339 347 1 12 19 38 121 129 123 110 105 106 88 162 186 174 258 266 314 287 296 348 313 295 277 229 255 273 259 264 212 202 258 240 241 249 231 229 257 262 227 170 291 200 160 230 340 346 335 161 86 18 215 212 178 177 96 100 74 1 343 336 335 344 357 30 55 1 349 357 55 92 113 139 83 108 187 155 128 216 261
350 358 2 358 352 344 341 351 2 8 15 59 140 131 126 113 102 99 91 168 193 191 163 164 191 286 334 353 314 310 297 248 251 253 260 271 246 229 268 264 262 275 328 307 291 313 230 225 11 13 5 325 346 3 27 122 120 147 188 148 135 153 150 122 116 133 182 211 257 262 289 340 15 360 353 359 31 89 137 133 89 152 205 113 128 202 246
358 10 13 6 358 349 344 357 9 11 27 144 149 140 135 121 115 128 104 149 175 164 104 119 136 194 50 350 302 305 310 289 276 258 253 265 261 252 274 300 297 305 15 355 312 347 318 325 53 15 328 328 331 354 24 64 75 86 86 70 95 113 58 81 116 141 182 197 226 237 204 60 1 340 350 351 334 329 106 104 126 183 154 64 208 200 158
11 25 26 15 6 355 347 6 24 28 66 128 144 139 131 115 134 162 129 136 126 78 66 85 117 183 154 87 322 290 286 309 313 275 246 300 308 268 244 19 28 324 345 353 281 340 346 15 51 351 314 334 317 338 28 49 34 49 64 35 62 105 48 40 94 82 182 221 261 277 78 86 53 2 353 349 339 352 80 109 164 153 125 110 234 172 134
33 44 38 24 15 3 352 15 43 46 67 114 140 125 101 106 146 136 122 195 230 80 32 288 113 129 163 145 341 317 315 339 349 301 321 340 357 25 344 1 15 327 302 232 295 344 20 29 19 358 358 348 317 338 22 37 23 37 56 27 65 116 71 15 94 57 27 21 4 23 89 103 73 44 20 3 357 17 77 119 187 118 131 176 168 135 112
55 55 47 33 24 15 1 9 46 50 50 61 111 104 94 106 121 120 107 124 153 112 298 300 68 65 350 318 344 335 331 343 326 259 331 351 355 33 3 320 337 336 314 144 93 2 61 59 338 358 9 320 281 357 352 12 26 44 68 37 61 103 67 35 100 68 34 18 10 31 76 103 65 40 26 17 17 37 67 81 57 81 106 127 116 102 74
75 62 58 41 31 29 21 15 16 30 33 32 55 91 118 118 124 131 112 92 38 6 338 11 63 28 355 342 317 281 314 330 310 277 66 16 330 6 13 314 320 335 346 73 94 78 130 141 209 134 38 332 327 28 273 306 15 32 63 36 24 74 113 211 81 72 20 2 5 12 42 93 77 40 20 15 18 29 47 61 60 71 91 98 96 93 71
85 72 68 49 38 41 42 39 24 353 12 23 47 115 135 127 125 132 119 74 359 354 359 64 82 27 2 344 284 299 300 289 298 304 252 201 311 343 325 311 322 356 16 63 107 158 199 191 212 148 132 265 284 299 299 318 344 7 49 24 12 65 120 171 73 94 343 351 359 346 9 78 73 37 15 1 2 20 23 18 5 2 130 121 114 115 110
93 85 78 57 45 47 51 56 53 21 7 204 183 154 145 133 126 127 119 69 350 350 9 49 73 51 302 288 266 282 297 297 315 351 285 260 345 356 329 313 337 343 4 70 62 307 288 260 261 267 231 239 261 275 278 281 280 221 105 69 44 100 123 112 86 121 245 337 341 327 359 62 39 360 354 326 313 12 24 1 350 339 127 132 130 135 129
104 95 88 68 52 48 51 60 64 65 96 154 172 166 165 150 137 126 110 86 357 360 36 37 49 346 310 325 292 257 290 314 331 121 243 276 343 357 358 21 9 320 264 332 327 313 293 264 16 19 339 220 312 299 282 270 268 168 140 118 84 103 109 101 83 119 171 299 325 350 49 116 237 308 339 336 4 68 71 39 8 9 61 94 83 93 102
110 101 95 83 63 50 49 56 59 64 76 84 114 153 173 168 161 151 117 113 334 360 56 66 217 274 311 317 301 261 265 303 300 244 240 270 292 331 355 43 73 265 296 319 323 312 131 103 89 74 54 65 66 22 33 47 25 19 107 126 119 108 100 95 77 102 136 296 357 55 142 191 186 257 7 37 61 82 86 64 31 36 84 98 89 86 93
114 107 102 96 77 58 51 54 52 51 58 59 65 95 126 149 155 155 124 113 25 320 58 278 281 306 310 304 307 304 305 324 317 260 230 245 261 304 330 309 231 289 308 318 327 126 119 87 91 88 14 5 11 11 23 32 25 23 42 86 119 127 120 108 74 81 122 66 42 99 160 204 175 199 357 29 34 48 71 59 34 26 52 97 103 101 105
119 113 108 106 92 71 57 54 51 48 51 55 61 82 109 128 137 149 133 115 116 288 185 294 306 321 317 312 327 331 337 352 352 265 222 251 256 272 301 301 303 309 310 313 1 104 91 72 93 78 2 2 8 349 344 3 29 34 28 32 87 116 125 115 64 71 134 106 79 109 101 129 168 41 9 18 314 299 305 59 42 29 38 107 119 117 117
125 118 114 116 106 90 79 64 55 49 51 61 74 87 97 106 106 144 151 132 129 54 36 355 296 294 299 320 354 356 344 353 355 310 291 294 277 291 325 330 327 324 313 320 60 70 82 96 107 107 63 42 119 268 307 334 9 25 36 44 55 75 108 129 112 83 114 103 100 113 103 132 96 15 327 322 311 275 235 120 55 55 84 125 131 125 127
129 123 120 121 111 102 102 84 69 61 61 72 83 80 69 53 32 256 182 127 112 69 345 346 317 296 293 318 4 14 343 325 334 325 323 321 313 325 342 352 352 353 10 87 71 61 71 88 119 133 141 208 202 147 28 351 347 347 13 43 51 50 59 94 100 77 93 110 112 119 153 127 40 320 305 327 328 280 214 80 50 123 133 142 138 130 138
129 126 125 126 117 108 109 104 90 77 74 87 93 79 71 64 59 101 145 114 98 86 18 19 9 358 7 348 345 360 350 317 336 8 321 309 311 328 343 357 13 19 29 68 66 48 71 88 80 87 112 230 181 110 60 58 37 338 340 14 35 33 25 45 66 59 64 86 95 91 112 282 343 307 311 323 321 266 149 39 281 160 153 158 153 143 146
128 126 128 129 125 117 113 113 106 91 87 94 94 83 81 74 65 88 117 110 100 85 57 49 41 40 51 43 357 355 360 343 343 331 288 293 298 321 332 345 8 12 16 47 78 58 73 75 49 87 107 314 23 84 42 36 40 334 329 8 26 19 17 49 83 78 47 56 84 69 318 280 312 320 318 320 317 181 118 289 204 153 150 162 159 147 146
125 124 127 130 131 129 122 118 118 110 99 94 89 85 87 83 81 97 109 107 103 97 80 67 62 59 53 47 40 35 27 8 357 3 347 331 330 323 322 340 10 4 10 47 76 75 78 47 342 112 81 344 5 90 57 23 10 326 351 30 24 14 15 24 53 61 40 74 95 15 284 223 347 330 321 324 344 189 269 229 157 148 149 159 158 150 148
125 120 121 125 127 126 121 115 120 130 127 115 108 104 101 97 95 98 101 101 99 97 89 76 68 64 57 49 46 41 34 21 6 19 144 269 326 337 350 11 351 353 16 52 50 60 90 72 307 68 84 14 5 99 85 31 14 8 49 68 40 25 42 23 16 33 44 57 55 50 209 324 347 340 328 1 29 281 177 121 140 148 151 155 154 151 145
136 124 118 117 112 108 101 92 96 120 143 141 126 119 121 117 104 89 86 93 94 89 81 76 68 61 56 49 42 34 28 23 10 360 343 322 342 10 104 211 324 356 33 73 64 48 111 121 49 53 80 26 3 89 124 88 21 8 58 94 56 8 65 108 297 321 65 65 44 65 277 320 338 341 322 353 354 314 138 126 136 147 152 154 151 145 142
145 133 123 117 110 103 96 84 83 98 134 153 144 128 131 135 123 89 81 93 94 88 81 79 71 64 60 53 44 35 29 27 24 15 4 359 17 46 88 233 356 46 28 42 82 82 53 96 106 79 63 41 42 76 110 102 53 337 357 66 66 18 115 127 109 38 97 98 63 8 356 350 356 14 40 48 64 115 136 132 133 140 152 157 148 139 141
151 143 132 121 115 106 94 87 85 81 103 145 154 144 139 143 137 120 114 110 101 90 79 72 69 68 64 55 45 38 32 31 32 28 22 18 27 43 49 36 35 39 19 35 87 131 122 116 126 109 92 68 71 80 65 67 83 341 10 51 70 76 124 124 101 95 101 72 47 28 19 22 39 59 69 80 94 112 129 128 123 129 147 153 144 139 140
158 155 141 126 121 111 91 83 82 77 91 132 155 157 148 143 140 136 132 126 113 95 75 63 57 56 53 46 40 36 32 32 34 36 38 42 43 42 42 43 48 54 55 63 84 104 102 105 113 97 88 41 67 93 74 53 71 91 50 21 356 34 74 89 81 91 101 58 30 24 33 40 56 72 80 87 93 101 113 115 109 114 127 134 135 136 137
165 162 150 137 134 124 108 87 78 86 100 120 147 162 164 160 158 157 153 141 120 108 86 59 54 58 62 52 42 35 31 30 34 44 51 51 54 63 66 63 66 70 72 77 84 85 82 75 75 92 85 17 29 86 99 80 86 91 74 35 326 11 48 61 66 59 64 70 61 71 73 71 76 84 86 89 92 95 98 102 106 111 117 123 129 133 133
169 170 161 151 148 136 129 122 96 97 102 104 121 153 172 174 172 175 169 141 115 101 94 75 69 74 75 61 45 39 38 40 44 54 60 55 52 60 71 76 80 84 83 82 82 79 77 71 70 84 72 32 48 74 101 94 71 73 80 28 315 329 1 31 72 71 58 73 121 101 82 70 74 89 95 97 100 101 101 104 109 111 114 117 122 125 126
175 177 174 164 162 155 140 138 130 114 112 113 110 130 161 170 172 167 155 143 123 92 81 112 94 79 68 58 50 45 47 53 55 60 66 65 61 64 74 87 96 95 88 83 77 73 72 70 62 65 73 76 72 68 77 92 78 80 65 351 349 23 93 74 79 86 74 212 194 152 106 82 87 100 105 106 106 106 106 107 108 108 111 114 116 117 119
183 184 182 176 172 169 156 154 151 137 132 132 122 118 140 158 162 156 153 146 123 124 141 138 109 86 70 59 55 53 52 54 59 65 70 69 67 70 77 89 95 90 84 82 76 66 65 69 70 60 79 88 73 42 33 70 63 60 10 335 351 56 166 160 118 136 202 200 184 146 118 122 124 117 117 119 116 108 105 105 102 100 103 105 106 112 120
190 189 188 185 178 175 172 169 164 151 145 143 130 119 131 147 155 160 168 165 125 130 134 120 78 69 64 52 50 53 53 53 58 65 68 68 66 67 71 77 80 80 82 84 82 72 65 73 80 61 45 61 77 38 29 52 52 35 333 334 356 40 123 69 92 104 127 153 158 135 122 130 137 133 131 132 124 112 109 109 108 105 107 108 105 111 121
195 192 192 188 178 175 177 176 173 161 153 149 140 124 121 131 148 164 175 164 144 140 132 106 86 77 58 48 47 53 57 59 64 67 65 62 62 63 66 72 75 78 82 83 79 74 64 60 66 59 48 55 87 109 86 87 79 353 336 358 38 72 67 50 71 107 125 141 147 135 130 134 137 135 133 131 124 114 111 115 117 113 112 112 110 111 117
199 197 195 185 174 172 175 175 176 171 161 156 150 130 111 119 146 158 159 154 150 143 122 102 99 90 58 48 47 54 60 60 64 66 61 58 60 63 65 70 72 73 76 76 73 70 59 47 53 58 52 58 77 100 108 107 96 360 345 26 71 79 73 78 96 109 119 131 133 130 130 132 134 136 136 133 128 118 113 119 122 115 111 107 100 103 111
202 199 190 176 167 167 170 171 174 174 168 163 160 143 130 135 140 144 151 155 153 139 123 106 83 51 35 35 39 53 64 62 63 64 59 58 63 66 65 66 67 66 68 70 66 55 43 52 65 64 54 58 75 94 80 87 101 37 352 74 93 91 90 100 106 103 111 128 132 130 135 141 144 147 145 142 140 132 125 129 133 131 132 130 120 125 138
202 198 182 168 162 161 162 166 170 171 168 166 165 152 141 141 137 136 146 154 150 136 123 105 85 51 5 42 48 48 50 56 61 61 57 56 64 69 65 63 63 62 61 60 57 52 56 66 73 69 60 61 72 81 62 60 81 177 139 114 113 111 109 113 111 107 121 138 136 130 142 155 161 166 163 159 156 150 143 144 146 149 155 156 149 155 168
199 188 169 159 156 155 159 162 164 166 166 168 173 173 161 152 142 139 147 151 145 136 113 84 94 91 345 24 48 36 35 55 61 54 49 55 66 73 67 58 57 57 53 47 49 64 62 53 57 62 50 39 46 62 77 26 76 144 146 136 128 127 125 124 122 125 138 146 136 127 138 150 163 174 176 175 170 167 171 174 168 167 174 179 176 176 184
191 173 158 152 148 148 152 152 152 154 156 161 172 176 172 168 155 150 155 153 141 134 113 87 103 104 44 26 11 17 44 64 60 51 51 58 61 64 62 56 53 48 41 40 45 53 42 35 44 40 347 356 28 54 228 221 171 157 157 152 145 144 144 141 139 143 151 158 155 149 151 163 180 181 181 183 182 184 193 200 196 195 197 193 191 196 200
175 158 150 146 143 141 145 148 150 150 148 151 161 159 157 159 154 150 156 152 132 130 128 108 107 122 128 125 337 13 66 67 50 49 55 52 51 52 54 63 61 39 32 39 41 36 31 36 48 27 352 16 53 283 255 198 170 168 166 164 161 159 159 167 168 164 167 177 179 173 173 189 202 197 192 192 195 201 209 212 210 211 215 212 211 216 218
160 152 148 145 141 139 142 149 155 154 146 145 146 141 140 144 142 139 140 128 107 108 121 118 114 142 148 143 145 42 76 53 30 45 44 33 38 44 46 57 67 24 30 33 21 19 31 42 56 67 39 15 345 317 279 163 181 195 185 179 183 183 180 203 189 181 180 185 187 185 189 201 211 212 210 210 213 216 222 228 232 234 236 236 239 244 242
154 151 150 148 143 139 144 154 158 153 143 137 132 127 128 133 131 124 114 103 92 87 96 108 121 140 133 113 78 71 84 50 50 60 44 32 37 32 34 48 63 38 34 355 338 16 33 33 50 79 78 343 51 80 106 129 147 158 146 170 206 235 281 261 208 194 187 180 179 188 203 215 220 222 223 229 235 240 246 253 253 250 252 260 268 271 262
154 154 154 155 152 144 148 153 150 143 137 132 126 122 124 120 114 102 61 58 71 74 72 83 108 130 128 116 95 95 98 73 64 68 51 49 60 49 39 56 52 51 64 303 322 41 49 1 10 50 360 330 51 94 109 111 106 101 86 57 19 320 310 282 225 213 209 195 189 211 233 240 236 231 238 249 253 255 262 266 260 253 254 261 264 265 261
155 156 158 161 153 142 142 143 140 136 133 129 120 112 103 85 80 133 99 59 43 42 66 91 108 103 107 121 116 100 89 82 88 111 111 78 71 91 92 79 45 59 68 301 298 60 84 40 25 66 234 271 81 110 116 112 105 101 79 42 22 1 346 326 243 226 220 211 213 235 243 246 263 291 297 291 279 272 274 273 266 259 259 261 265 266 263
156 158 159 155 142 137 136 136 133 130 130 124 104 89 86 64 51 86 90 76 34 40 99 113 118 102 93 105 107 99 99 96 95 103 102 61 40 72 88 61 38 74 86 260 281 68 87 80 39 295 223 203 158 134 132 129 122 113 88 52 30 18 9 358 296 246 234 236 247 245 217 214 272 305 328 345 330 315 300 285 273 266 268 277 283 281 263
158 155 150 142 137 135 134 130 126 123 118 106 82 25 346 12 100 75 65 99 160 152 119 116 121 112 102 97 96 104 113 106 87 90 100 67 48 85 91 14 41 79 155 238 313 50 65 83 334 267 217 172 158 157 149 140 135 128 107 67 36 22 12 3 348 298 248 244 249 233 205 207 231 247 287 327 323 310 291 274 269 276 283 287 289 278 218
152 147 142 139 136 136 131 116 101 95 71 69 82 42 339 353 53 22 347 153 142 129 126 135 134 122 110 102 99 99 105 106 90 84 89 95 94 82 61 35 51 104 188 215 58 59 87 168 223 227 184 162 162 164 155 148 147 136 108 70 34 15 4 359 354 345 20 87 183 204 203 204 213 240 293 311 306 287 255 232 241 266 276 278 271 234 183
147 143 142 140 133 130 132 121 57 103 112 93 130 141 164 222 214 164 162 167 159 147 148 154 152 140 120 106 105 101 104 107 90 71 72 85 73 62 60 36 257 239 54 44 44 56 188 226 233 194 166 163 169 170 162 157 151 133 97 38 11 353 334 328 315 291 280 230 198 201 202 211 243 264 280 288 279 254 234 230 239 252 252 238 218 204 199
148 142 138 128 91 105 140 169 332 132 178 205 176 152 162 184 201 192 169 164 161 157 159 162 158 144 123 112 111 109 109 98 80 63 92 91 55 45 120 186 300 47 62 47 28 68 233 266 238 182 167 169 175 172 167 164 154 139 25 330 347 344 317 294 268 255 245 229 221 225 233 247 254 252 249 252 248 232 226 236 249 245 217 195 197 206 217
150 146 134 119 31 358 122 110 308 247 194 194 194 189 182 176 171 161 156 157 157 157 160 164 159 143 124 109 100 92 88 95 86 39 32 86 77 65 194 139 58 54 59 35 356 221 235 255 221 180 171 174 177 174 173 177 178 186 235 296 332 347 352 360 336 278 251 237 238 243 247 252 258 255 249 249 251 243 238 241 244 236 219 208 207 209 216
148 145 128 107 86 189 98 176 208 206 200 201 202 189 168 155 146 140 146 156 159 157 155 152 147 135 116 97 99 95 68 74 81 5 22 86 106 331 2 54 73 120 123 147 238 244 246 230 190 176 175 178 179 178 182 189 199 212 238 286 309 318 333 350 351 340 297 252 246 245 246 253 262 262 258 261 267 262 250 240 238 239 236 231 229 232 238
146 144 130 117 160 176 192 197 183 159 120 179 167 153 148 143 136 133 143 152 154 154 152 145 136 125 94 66 87 91 40 51 77 34 17 89 107 18 24 40 325 279 175 174 210 239 223 181 172 174 176 177 179 187 200 218 242 255 263 276 288 296 300 304 309 313 304 282 263 254 257 264 269 270 270 270 269 264 252 241 238 241 243 244 246 250 253
135 133 126 120 139 147 143 147 137 96 84 138 146 147 146 140 131 130 140 146 146 150 150 141 128 122 76 31 74 78 30 47 91 41 27 64 97 127 109 108 284 275 218 206 227 221 176 166 168 173 179 184 193 211 231 246 257 261 259 260 267 275 285 298 304 300 292 284 276 272 276 281 287 292 291 284 272 264 259 252 246 244 246 251 255 256 257
128 130 125 120 125 123 108 115 110 76 86 136 143 145 143 138 134 135 141 146 145 142 137 123 109 105 83 47 59 45 334 260 113 82 66 99 164 140 116 136 213 223 220 223 207 171 159 160 168 178 187 195 209 229 238 243 250 253 253 258 266 272 281 299 308 306 297 287 280 278 280 283 288 295 297 288 270 261 260 263 264 260 257 257 258 258 259
138 143 152 144 144 153 155 146 148 160 163 153 149 147 144 142 142 144 148 152 150 140 124 109 99 81 65 58 74 110 181 140 82 74 107 214 170 124 130 211 233 221 197 170 158 157 160 165 175 186 192 200 223 245 251 255 260 260 259 262 267 272 283 290 291 289 285 280 279 283 286 286 286 287 284 276 269 266 266 269 270 266 262 261 263 263 262
157 154 156 157 165 178 179 163 159 160 157 151 148 147 145 145 146 150 153 156 154 141 128 131 117 83 73 153 166 126 103 82 59 60 207 220 182 166 187 203 192 172 157 146 146 157 168 174 179 190 205 217 239 258 265 266 264 261 262 268 273 278 287 292 292 291 288 283 281 284 283 278 275 277 277 275 278 282 282 279 272 267 270 276 278 275 273